Regional Weather Roundup
Issued by NWS

Home | Current Version | Previous Version | Text Only | Print | Product List | Glossary Off
Versions: 1 2 3 4 5 6 7 8 9 10 11 12 13 14 15 16 17 18 19 20 21 22 23 24 25 26 27 28 29 30 31 32 33 34 35 36 37 38 39 40 41 42 43 44 45 46 47 48 49 50

000
ASUS45 KBOU 302207
RWRCO

WEATHER ROUNDUP FOR COLORADO
NATIONAL WEATHER SERVICE DENVER/BOULDER CO
300 PM MST FRI JAN 30 2015

NOTE: "FAIR" INDICATES FEW OR NO CLOUDS BELOW 12000 FEET WITH NO
SIGNIFICANT WEATHER AND/OR OBSTRUCTIONS TO VISIBILITY.

COZ001>005-013-030-031-302300-
...NORTHWEST COLORADO...

CITY           SKY/WX    TMP DP  RH WIND       PRES   REMARKS
CRAIG          CLOUDY    38  32  79 SW3       30.05S
HAYDEN         CLOUDY    36  28  75 W5        30.04S
MEEKER         CLOUDY    37  32  82 NE5       30.03F
MOUNT WERNER   NOT AVBL
STEAMBOAT SPGS CLOUDY    37  29  72 E5        30.04S
WALDEN         CLOUDY    36  27  69 CALM      30.08F
$$

COZ006>008-011-302300-
...WEST CENTRAL VALLEYS...

CITY           SKY/WX    TMP DP  RH WIND       PRES   REMARKS
GRAND JUNCTION LGT RAIN  45  37  73 S7        30.02F
MONTROSE       CLOUDY    42  36  79 NW7       30.04F
EAGLE          CLOUDY    39  30  70 W5        30.08F
RIFLE          CLOUDY    44  30  57 CALM      30.02F
DELTA          DRIZZLE   44  40  86 W3        30.03F
NUCLA          LGT RAIN  37  36  93 NW5       30.07F
$$

COZ017>023-064>068-302300-
...SOUTHWEST COLORADO...

CITY           SKY/WX    TMP DP  RH WIND       PRES   REMARKS
DURANGO        LGT SNOW  32  31  96 NE8       30.08F VSB 1   WCI  25
CORTEZ         LGT RAIN  37  35  92 W8        30.04F
PAGOSA SPRINGS SNOW      35  35 100 CALM      30.10F VSB 1/2
TELLURIDE      LGT SNOW  36  30  79 SE5       30.05F
WOLF CREEK PAS SNOW      23  23 100 SW16G22   30.16F VSB 1/4 WCI  10
$$

COZ009-010-012-014-032>034-037-058>063-302300-
...CENTRAL COLORADO...

CITY           SKY/WX    TMP DP  RH WIND       PRES   REMARKS
ASPEN          CLOUDY    36  26  67 N5        30.04F
BUENA VISTA    LGT SNOW  32  30  94 CALM      30.12F
COPPER MTN     LGT SNOW  30  25  80 SE5       30.14S WCI  25
BERTHOUD PASS  CLOUDY    19  12  73 E25G31    30.16S WCI   2
COTTONWOOD PAS LGT SNOW  32  28  86 CALM      30.12F VSB 3/4
GUNNISON       CLOUDY    32  28  86 NE5       30.11S VSB 3/4 WCI  27
KREMMLING      CLOUDY    34  23  64 CALM      30.09F
LEADVILLE      LGT SNOW  26  24  92 S6        30.10S FOG     WCI  19
MONARCH PASS   SNOW      23  21  93 MISG      30.24F VSB<1/4
SALIDA         CLOUDY    34  33  94 CALM      30.20S
SUNLIGHT       LGT SNOW  30  28  93 CALM        N/A  VSB 1
WILKERSON PASS LGT SNOW  27  19  74 S6        30.17F WCI  20
$$

COZ069>075-302300-
...SAN LUIS VALLEY/SANGRE DE CRISTO MOUNTAINS...

CITY           SKY/WX    TMP DP  RH WIND       PRES   REMARKS
ALAMOSA        SNOW      32  30  92 S5        30.13F VSB 1/2 WCI  27
LA VETA PASS   SNOW      27  23  86 SW5       30.11F VSB 1/4 WCI  21
SAGUACHE       LGT SNOW  30  28  93 CALM      30.14F
$$

COZ035-036-038>040-302300-
...NORTHERN COLORADO FRONT RANGE...

CITY           SKY/WX    TMP DP  RH WIND       PRES   REMARKS
DENVER INTL AP CLOUDY    47  26  44 VRB6      30.07F
DMNS CITY PARK   N/A     48  24  38 N3        30.07S
AURORA         CLOUDY    46  25  44 N5        30.08F
FRONT RANGE AP CLOUDY    48  28  46 NW3       30.08F
ERIE MUNI ARPT CLOUDY    49  23  36 CALM      30.07F
BOULDER MUN AP CLOUDY    48  27  43 CALM      30.07S
CENTENNIAL     CLOUDY    46  24  42 N7        30.08S
BROOMFIELD     CLOUDY    48  25  40 N6        30.08F
FORT COLLINS   CLOUDY    48  27  43 CALM      30.09F
LONGMONT       CLOUDY    51  25  36 CALM      30.09F
$$

COZ041-046-047-076>085-087-088-302300-
...PIKES PEAK/PALMER DIVIDE AND SOUTHERN FOOTHILLS...

CITY           SKY/WX    TMP DP  RH WIND       PRES   REMARKS
COLO. SPRINGS  CLOUDY    40  25  55 VRB3      30.09F
A. F. ACADEMY  CLOUDY    41  24  51 S2        30.08S
ELLICOTT       CLOUDY   N/A N/A N/A S5        30.08F
FALCON         CLOUDY    39  24  53 CALM      30.10S
FORT CARSON    CLOUDY    40  25  55 E3        30.08F
LIMON          CLOUDY    40  30  67 S12       30.09
MONUMENT HILL  CLOUDY    41  23  48 N7        30.08S
TRINIDAD       LGT RAIN  35  30  82 W18       30.11F WCI  24
$$

COZ042>045-048>051-090-091-302300-
...NORTHEAST COLORADO...

CITY           SKY/WX    TMP DP  RH WIND       PRES   REMARKS
GREELEY ARPT   CLOUDY    45  27  49 CALM      30.07S
AKRON          CLOUDY    45  29  53 NW3       30.08F
BURLINGTON     CLOUDY    41  31  67 S23G35    30.14F
WRAY           CLOUDY    49  33  53 S18G25    30.11F
STERLING       CLOUDY    45  28  53 CALM      30.08S
HOLYOKE        NOT AVBL
FORT MORGAN    CLOUDY    44  28  52 CALM      30.09S
$$

COZ086-089-092>099-302300-
...SOUTHEAST COLORADO...

CITY           SKY/WX    TMP DP  RH WIND       PRES   REMARKS
PUEBLO         CLOUDY    44  28  53 SW3       30.08F
LA JUNTA       LGT RAIN  40  36  86 S10       30.11F
LAMAR          LGT RAIN  36  34  92 SE14G24   30.14F FOG
SPRINGFIELD      N/A     33  33 100 S18       30.18F WCI  22
$$


USA.gov is the U.S. government's official web portal to all federal, state and local government web resources and services.